• En España
  • Lista de países
  • Para 7 días
  • Temperatura del agua
  • Mapa Satelital
  • El tiempo en el mapa
  • Informadores
  • user-avatar
    Iniciar sesión

    Tiempo cada hora Kitzbuel

    Hoy, 19 Febrero, Lunes

    Tiempo Temperatura Precipitaciones Viento Presión Humedad
    00:00 -8°C° 0 mm 1 mps 677 mmHg 91%
    01:00 -8°C° 0 mm 1 mps 677 mmHg 90%
    02:00 -8°C° 0 mm 1 mps 676 mmHg 87%
    03:00 -8°C° 0 mm 1 mps 676 mmHg 85%
    04:00 -8°C° 0 mm 1 mps 676 mmHg 82%
    05:00 -9°C° 0 mm 1 mps 675 mmHg 80%
    06:00 -9°C° 0 mm 1 mps 675 mmHg 78%
    07:00 -9°C° 0 mm 1 mps 675 mmHg 76%
    08:00 -7°C° 0 mm 1 mps 675 mmHg 74%
    09:00 -3°C° 0 mm 1 mps 675 mmHg 72%
    10:00 -2°C° 0 mm 0 mps 675 mmHg 70%
    11:00 0°C° 0 mm 1 mps 675 mmHg 72%
    12:00 +1°C° 0 mm 1 mps 675 mmHg 73%
    13:00 +1°C° 0 mm 1 mps 674 mmHg 74%
    14:00 +1°C° 0 mm 1 mps 674 mmHg 78%
    15:00 +1°C° 0 mm 1 mps 674 mmHg 82%
    16:00 +1°C° 0 mm 1 mps 673 mmHg 86%
    17:00 0°C° 0 mm 1 mps 673 mmHg 89%
    18:00 -2°C° 0 mm 1 mps 673 mmHg 92%
    19:00 -4°C° 0 mm 0 mps 673 mmHg 95%
    20:00 -4°C° 0 mm 0 mps 673 mmHg 95%
    21:00 -4°C° 0 mm 1 mps 673 mmHg 95%
    22:00 -4°C° 0 mm 1 mps 673 mmHg 94%
    23:00 -4°C° 0 mm 1 mps 672 mmHg 94%

    Mañana, 20 Febrero, Martes

    Tiempo Temperatura Precipitaciones Viento Presión Humedad
    00:00 -6°C° 0 mm 1 mps 672 mmHg 93%
    01:00 -6°C° 0 mm 1 mps 672 mmHg 93%
    02:00 -6°C° 0 mm 1 mps 672 mmHg 92%
    03:00 -7°C° 0 mm 1 mps 671 mmHg 92%
    04:00 -7°C° 0 mm 1 mps 671 mmHg 91%
    05:00 -7°C° 0 mm 1 mps 671 mmHg 91%
    06:00 -7°C° 0 mm 1 mps 671 mmHg 90%
    07:00 -7°C° 0 mm 1 mps 671 mmHg 90%
    08:00 -6°C° 0 mm 1 mps 671 mmHg 87%
    09:00 -3°C° 0 mm 1 mps 671 mmHg 85%
    10:00 -2°C° 0 mm 1 mps 671 mmHg 83%
    11:00 -1°C° 0,1 mm 1 mps 671 mmHg 82%
    12:00 -1°C° 0,1 mm 1 mps 671 mmHg 81%
    13:00 0°C° 0,1 mm 1 mps 671 mmHg 80%
    14:00 0°C° 0,1 mm 1 mps 671 mmHg 82%
    15:00 -3°C° 0,1 mm 2 mps 670 mmHg 83%
    16:00 -3°C° 0,1 mm 2 mps 670 mmHg 85%
    17:00 -2°C° 0,1 mm 1 mps 670 mmHg 88%
    18:00 -3°C° 0,1 mm 1 mps 670 mmHg 92%
    19:00 -4°C° 0,1 mm 1 mps 671 mmHg 95%
    20:00 -4°C° 0,1 mm 1 mps 671 mmHg 95%
    21:00 -4°C° 0,1 mm 1 mps 671 mmHg 95%
    22:00 -6°C° 0,1 mm 1 mps 672 mmHg 96%
    23:00 -6°C° 0,2 mm 1 mps 672 mmHg 95%

    Pasado mañana, 21 Febrero, Miércoles

    Tiempo Temperatura Precipitaciones Viento Presión Humedad
    00:00 -6°C° 0,2 mm 1 mps 672 mmHg 95%
    01:00 -6°C° 0,2 mm 1 mps 672 mmHg 95%
    02:00 -6°C° 0,1 mm 1 mps 672 mmHg 94%
    03:00 -6°C° 0,1 mm 1 mps 672 mmHg 94%
    04:00 -7°C° 0,1 mm 1 mps 672 mmHg 94%
    05:00 -7°C° 0,1 mm 1 mps 672 mmHg 94%
    06:00 -7°C° 0,1 mm 1 mps 672 mmHg 94%
    07:00 -7°C° 0,1 mm 1 mps 672 mmHg 94%
    08:00 -4°C° 0 mm 1 mps 673 mmHg 92%
    09:00 -3°C° 0 mm 1 mps 673 mmHg 90%
    10:00 -2°C° 0 mm 1 mps 673 mmHg 89%
    11:00 -1°C° 0,1 mm 1 mps 673 mmHg 88%
    12:00 0°C° 0,1 mm 1 mps 672 mmHg 88%
    13:00 -2°C° 0,1 mm 2 mps 672 mmHg 87%
    14:00 -2°C° 0,1 mm 2 mps 672 mmHg 89%
    15:00 -2°C° 0,1 mm 2 mps 671 mmHg 90%
    16:00 -2°C° 0,1 mm 2 mps 671 mmHg 91%
    17:00 -3°C° 0,2 mm 2 mps 671 mmHg 92%
    18:00 -3°C° 0,2 mm 2 mps 671 mmHg 94%
    19:00 -4°C° 0,2 mm 2 mps 671 mmHg 95%
    20:00 -4°C° 0,2 mm 2 mps 671 mmHg 95%
    21:00 -5°C° 0,2 mm 2 mps 671 mmHg 96%
    22:00 -3°C° 0,2 mm 1 mps 671 mmHg 96%
    23:00 -5°C° 0,2 mm 2 mps 671 mmHg 96%

    22 Febrero, Jueves

    Tiempo Temperatura Precipitaciones Viento Presión Humedad
    00:00 -6°C° 0,2 mm 2 mps 670 mmHg 96%
    01:00 -6°C° 0,2 mm 2 mps 670 mmHg 95%
    02:00 -6°C° 0,1 mm 2 mps 670 mmHg 95%
    03:00 -7°C° 0,1 mm 2 mps 669 mmHg 95%
    04:00 -7°C° 0,1 mm 2 mps 669 mmHg 95%
    05:00 -7°C° 0,1 mm 2 mps 669 mmHg 94%
    06:00 -7°C° 0,1 mm 2 mps 668 mmHg 94%
    07:00 -7°C° 0,1 mm 2 mps 668 mmHg 93%
    08:00 -6°C° 0,1 mm 2 mps 668 mmHg 92%
    09:00 -5°C° 0,1 mm 2 mps 668 mmHg 91%
    10:00 -4°C° 0,1 mm 2 mps 669 mmHg 90%
    11:00 -4°C° 0,2 mm 2 mps 668 mmHg 89%
    12:00 -3°C° 0,2 mm 2 mps 668 mmHg 89%
    13:00 -2°C° 0,2 mm 2 mps 668 mmHg 89%
    14:00 -3°C° 0,2 mm 2 mps 668 mmHg 90%
    15:00 -3°C° 0,2 mm 2 mps 668 mmHg 91%
    16:00 -3°C° 0,2 mm 2 mps 668 mmHg 92%
    17:00 -3°C° 0,2 mm 2 mps 668 mmHg 93%
    18:00 -4°C° 0,2 mm 2 mps 668 mmHg 94%
    19:00 -5°C° 0,2 mm 2 mps 668 mmHg 95%
    20:00 -3°C° 0,1 mm 1 mps 668 mmHg 95%
    21:00 -3°C° 0,1 mm 1 mps 668 mmHg 95%
    22:00 -4°C° 0,1 mm 1 mps 668 mmHg 95%
    23:00 -4°C° 0,1 mm 1 mps 668 mmHg 95%

    23 Febrero, Viernes

    Tiempo Temperatura Precipitaciones Viento Presión Humedad
    00:00 -6°C° 0,1 mm 1 mps 667 mmHg 94%
    01:00 -6°C° 0,1 mm 1 mps 667 mmHg 94%
    02:00 -6°C° 0 mm 1 mps 667 mmHg 94%
    03:00 -7°C° 0 mm 1 mps 667 mmHg 94%
    04:00 -7°C° 0 mm 1 mps 666 mmHg 93%
    05:00 -7°C° 0 mm 1 mps 667 mmHg 93%
    06:00 -7°C° 0 mm 1 mps 667 mmHg 93%
    07:00 -7°C° 0 mm 1 mps 667 mmHg 92%
    08:00 -6°C° 0,1 mm 1 mps 667 mmHg 91%
    09:00 -3°C° 0,1 mm 1 mps 667 mmHg 91%
    10:00 -4°C° 0,1 mm 2 mps 667 mmHg 90%
    11:00 -4°C° 0,1 mm 2 mps 667 mmHg 89%
    12:00 -3°C° 0,1 mm 2 mps 667 mmHg 89%
    13:00 -3°C° 0,1 mm 2 mps 667 mmHg 89%
    14:00 -3°C° 0,2 mm 2 mps 667 mmHg 89%
    15:00 -3°C° 0,2 mm 2 mps 667 mmHg 90%
    16:00 -3°C° 0,2 mm 2 mps 667 mmHg 91%
    17:00 -4°C° 0,2 mm 2 mps 667 mmHg 92%
    18:00 -5°C° 0,2 mm 2 mps 668 mmHg 93%
    19:00 -6°C° 0,2 mm 2 mps 668 mmHg 95%
    20:00 -7°C° 0,1 mm 2 mps 668 mmHg 95%
    21:00 -7°C° 0,1 mm 2 mps 669 mmHg 95%
    22:00 -8°C° 0,1 mm 2 mps 669 mmHg 95%
    23:00 -8°C° 0,1 mm 2 mps 669 mmHg 95%

    24 Febrero, Sábado

    Tiempo Temperatura Precipitaciones Viento Presión Humedad
    00:00 -8°C° 0,1 mm 2 mps 669 mmHg 94%
    01:00 -9°C° 0,1 mm 2 mps 669 mmHg 94%
    02:00 -9°C° 0,1 mm 2 mps 669 mmHg 94%
    03:00 -10°C° 0,1 mm 2 mps 669 mmHg 94%
    04:00 -10°C° 0,1 mm 2 mps 669 mmHg 94%
    05:00 -10°C° 0,2 mm 2 mps 669 mmHg 94%
    06:00 -12°C° 0,2 mm 2 mps 669 mmHg 93%
    07:00 -13°C° 0,2 mm 2 mps 670 mmHg 93%
    08:00 -12°C° 0,1 mm 2 mps 670 mmHg 91%
    09:00 -12°C° 0,1 mm 2 mps 670 mmHg 89%
    10:00 -12°C° 0,1 mm 2 mps 670 mmHg 87%
    11:00 -10°C° 0,1 mm 2 mps 670 mmHg 85%
    12:00 -12°C° 0,1 mm 3 mps 670 mmHg 84%
    13:00 -10°C° 0,1 mm 3 mps 670 mmHg 82%
    14:00 -10°C° 0,1 mm 2 mps 670 mmHg 82%
    15:00 -10°C° 0,1 mm 2 mps 670 mmHg 82%
    16:00 -10°C° 0,1 mm 2 mps 670 mmHg 82%
    17:00 -12°C° 0,1 mm 2 mps 670 mmHg 85%
    18:00 -14°C° 0,1 mm 2 mps 670 mmHg 88%
    19:00 -13°C° 0,1 mm 1 mps 670 mmHg 91%
    20:00 -13°C° 0,1 mm 1 mps 671 mmHg 91%
    21:00 -14°C° 0,1 mm 1 mps 671 mmHg 92%
    22:00 -14°C° 0,1 mm 1 mps 671 mmHg 92%
    23:00 -14°C° 0,1 mm 1 mps 671 mmHg 92%
    Mostrar más